Zurück zum Katalog

STARLINK-37585

AktivKommunikationSSO
NORAD 69421·PAYLOAD·🇺🇸 United States

Gestartet Jun 7, 2026 von Vandenberg Space Force Base

Loading…

Nächste Überflüge (nächste 24 Stunden)

TLE

AktuellSource: CelesTrak SupGP

Epoche: Sep 14, 2026, 21:15 UTC

1 69421C 26126B   26257.88590278  .00022216  00000+0  68964-3 0  2573
2 69421  97.2849 119.1538 0001921  90.4797 176.2382 15.33427367    11

Verfolge STARLINK-37585 in Echtzeit mit AllMySat

Download on the App Store